Torna al catalogo

BREEZE-M R/B

AttivoHEO
NORAD 40883·ROCKET BODY·🇷🇺 Russia

Lanciato Aug 28, 2015 da Baikonur Cosmodrome

Loading…

Prossimi Passaggi (prossime 24 ore)

TLE

AggiornatoSource: Space-Track

Epoca: Sep 13, 2026, 20:24 UTC

1 40883U 15042B   26256.85014102 -.00000126  00000-0  00000+0 0  9996
2 40883  29.7888  63.2132 7922251 178.4502 188.5436  1.10225088 44481

Traccia BREEZE-M R/B in tempo reale con AllMySat

Download on the App Store